Location: Hylvaty SDH
(49.9612°N, 16.4057°E)
Time: 20:34:50
(UTC+01:00)

Vanguard 1 Rocket - Pass Details

Date: 02 October 2020
Orbit: 656 x 4221 km, 34.3° (Epoch: 30 October)

Event Time Altitude Azimuth Distance (km) Brightness Sun altitude
Rises 18:19:10 0° 233° (SW) 4,775 12.3 0.9°
Reaches altitude 10° 18:21:58 10° 226° (SW) 4,152 11.7 0.4°
Maximum altitude 18:32:57 41° 160° (SSE) 3,519 10.3 -1.3°
Drops below altitude 10° 18:51:57 10° 101° (E) 7,004 11.3 -4.4°
Enters shadow 18:55:31 - 98° (E) 7,724 11.4 -5.0°
Sets 18:58:34 0° 96° (E) 8,318 - -5.4°
